Location: *
(47.8307°S, 178.3954°E)
Time: 08:03:39
(UTC+00:00)

Cosmos 1536 Rocket - Pass Details

Date: 12 August 2024
Orbit: 602 x 627 km, 82.5° (Epoch: 18 September)

Event Time Altitude Azimuth Distance (km) Brightness Sun altitude
Rises 18:38:46 0° 354° (N) 2,910 7.1 -6.3°
Reaches altitude 10° 18:40:59 10° 355° (N) 2,008 6.3 -5.9°
Maximum altitude 18:45:27 84° 82° (E) 642 3.7 -5.2°
Drops below altitude 10° 18:49:57 10° 169° (S) 2,023 6.1 -4.5°
Sets 18:52:11 0° 170° (S) 2,933 7.0 -4.1°
